DIRECTV 5 (TEMPO 1)

Last updated on Thu Oct 30 2025 00:02:47 GMT+0000 (Coordinated Universal Time)

1 27426U 02023A 25302.49091343 -.00000044 00000+0 00000+0 0 9990 2 27426 4.2839 78.1809 0003442 150.2864 236.2423 1.00271975 85817
UTC large
Height (km)
Speed (km/s)
/
Latitude / Longitude
Inclination (degrees)
Orbital Period (minutes)
Azimuth
Elevation
Range (km)
Doppler Factor

Next 0 passes for location: London (51.5072 / 0.1276)

Sorry there are no passes over London.